Year,Month,Day,Hour,Minute,Value (Times are PST for temperature in C)
2012,10,02,00,00,11.10
2012,10,02,00,01,11.20
2012,10,02,00,02,11.20
2012,10,02,00,03,11.20
2012,10,02,00,04,11.20
2012,10,02,00,05,11.20
2012,10,02,00,06,11.20
2012,10,02,00,07,11.20
2012,10,02,00,08,11.10
2012,10,02,00,09,11.10
2012,10,02,00,10,11.10
2012,10,02,00,11,11.10
2012,10,02,00,12,11.10
2012,10,02,00,13,11.10
2012,10,02,00,14,11.10
2012,10,02,00,15,11.00
2012,10,02,00,16,10.90
2012,10,02,00,17,10.90
2012,10,02,00,18,10.90
2012,10,02,00,19,10.90
2012,10,02,00,20,10.90
2012,10,02,00,21,10.90
2012,10,02,00,22,10.90
2012,10,02,00,23,10.90
2012,10,02,00,24,10.80
2012,10,02,00,25,10.80
2012,10,02,00,26,10.80
2012,10,02,00,27,10.80
2012,10,02,00,28,10.70
2012,10,02,00,29,10.70
2012,10,02,00,30,10.70
2012,10,02,00,31,10.70
2012,10,02,00,32,10.60
2012,10,02,00,33,10.60
2012,10,02,00,34,10.60
2012,10,02,00,35,10.60
2012,10,02,00,36,10.60
2012,10,02,00,37,10.60
2012,10,02,00,38,10.60
2012,10,02,00,39,10.60
2012,10,02,00,40,10.60
2012,10,02,00,41,10.60
2012,10,02,00,42,10.50
2012,10,02,00,43,10.40
2012,10,02,00,44,10.40
2012,10,02,00,45,10.40
2012,10,02,00,46,10.40
2012,10,02,00,47,10.40
2012,10,02,00,48,10.40
2012,10,02,00,49,10.30
2012,10,02,00,50,10.30
2012,10,02,00,51,10.30
2012,10,02,00,52,10.30
2012,10,02,00,53,10.20
2012,10,02,00,54,10.20
2012,10,02,00,55,10.20
2012,10,02,00,56,10.20
2012,10,02,00,57,10.10
2012,10,02,00,58,10.10
2012,10,02,00,59,10.10
2012,10,02,01,00,10.10
2012,10,02,01,01,10.10
2012,10,02,01,02,10.10
2012,10,02,01,03,10.10
2012,10,02,01,04,10.10
2012,10,02,01,05,10.10
2012,10,02,01,06,10.10
2012,10,02,01,07,10.10
2012,10,02,01,08,10.10
2012,10,02,01,09,10.00
2012,10,02,01,10,9.90
2012,10,02,01,11,9.90
2012,10,02,01,12,9.90
2012,10,02,01,13,9.90
2012,10,02,01,14,9.90
2012,10,02,01,15,9.90
2012,10,02,01,16,9.90
2012,10,02,01,17,9.90
2012,10,02,01,18,9.90
2012,10,02,01,19,9.90
2012,10,02,01,20,9.90
2012,10,02,01,21,9.90
2012,10,02,01,22,9.90
2012,10,02,01,23,9.90
2012,10,02,01,24,9.90
2012,10,02,01,25,9.90
2012,10,02,01,26,9.90
2012,10,02,01,27,9.80
2012,10,02,01,28,9.80
2012,10,02,01,29,9.80
2012,10,02,01,30,9.70
2012,10,02,01,31,9.70
2012,10,02,01,32,9.70
2012,10,02,01,33,9.70
2012,10,02,01,34,9.70
2012,10,02,01,35,9.70
2012,10,02,01,36,9.70
2012,10,02,01,37,9.70
2012,10,02,01,38,9.70
2012,10,02,01,39,9.70
2012,10,02,01,40,9.70
2012,10,02,01,41,9.70
2012,10,02,01,42,9.70
2012,10,02,01,43,9.70
2012,10,02,01,44,9.70
2012,10,02,01,45,9.70
2012,10,02,01,46,9.70
2012,10,02,01,47,9.70
2012,10,02,01,48,9.70
2012,10,02,01,49,9.70
2012,10,02,01,50,9.70
2012,10,02,01,51,9.60
2012,10,02,01,52,9.60
2012,10,02,01,53,9.60
2012,10,02,01,54,9.70
2012,10,02,01,55,9.70
2012,10,02,01,56,9.70
2012,10,02,01,57,9.60
2012,10,02,01,58,9.60
2012,10,02,01,59,9.60
2012,10,02,02,00,9.50
2012,10,02,02,01,9.50
2012,10,02,02,02,9.60
2012,10,02,02,03,9.60
2012,10,02,02,04,9.60
2012,10,02,02,05,9.50
2012,10,02,02,06,9.50
2012,10,02,02,07,9.50
2012,10,02,02,08,9.50
2012,10,02,02,09,9.50
2012,10,02,02,10,9.40
2012,10,02,02,11,9.40
2012,10,02,02,12,9.40
2012,10,02,02,13,9.40
2012,10,02,02,14,9.40
2012,10,02,02,15,9.30
2012,10,02,02,16,9.30
2012,10,02,02,17,9.30
2012,10,02,02,18,9.30
2012,10,02,02,19,9.20
2012,10,02,02,20,9.20
2012,10,02,02,21,9.20
2012,10,02,02,22,9.20
2012,10,02,02,23,9.20
2012,10,02,02,24,9.20
2012,10,02,02,25,9.20
2012,10,02,02,26,9.20
2012,10,02,02,27,9.20
2012,10,02,02,28,9.20
2012,10,02,02,29,9.20
2012,10,02,02,30,9.20
2012,10,02,02,31,9.20
2012,10,02,02,32,9.20
2012,10,02,02,33,9.20
2012,10,02,02,34,9.20
2012,10,02,02,35,9.20
2012,10,02,02,36,9.20
2012,10,02,02,37,9.20
2012,10,02,02,38,9.20
2012,10,02,02,39,9.20
2012,10,02,02,40,9.20
2012,10,02,02,41,9.20
2012,10,02,02,42,9.20
2012,10,02,02,43,9.20
2012,10,02,02,44,9.20
2012,10,02,02,45,9.20
2012,10,02,02,46,9.20
2012,10,02,02,47,9.20
2012,10,02,02,48,9.20
2012,10,02,02,49,9.20
2012,10,02,02,50,9.20
2012,10,02,02,51,9.20
2012,10,02,02,52,9.10
2012,10,02,02,53,9.10
2012,10,02,02,54,9.00
2012,10,02,02,55,9.00
2012,10,02,02,56,9.00
2012,10,02,02,57,8.90
2012,10,02,02,58,8.90
2012,10,02,02,59,9.00
2012,10,02,03,00,9.00
2012,10,02,03,01,9.00
2012,10,02,03,02,9.00
2012,10,02,03,03,9.00
2012,10,02,03,04,9.00
2012,10,02,03,05,9.00
2012,10,02,03,06,8.90
2012,10,02,03,07,8.90
2012,10,02,03,08,8.90
2012,10,02,03,09,8.90
2012,10,02,03,10,8.90
2012,10,02,03,11,8.90
2012,10,02,03,12,8.80
2012,10,02,03,13,8.80
2012,10,02,03,14,8.80
2012,10,02,03,15,8.80
2012,10,02,03,16,8.80
2012,10,02,03,17,8.80
2012,10,02,03,18,8.80
2012,10,02,03,19,8.80
2012,10,02,03,20,8.80
2012,10,02,03,21,8.80
2012,10,02,03,22,8.90
2012,10,02,03,23,8.90
2012,10,02,03,24,8.90
2012,10,02,03,25,8.90
2012,10,02,03,26,8.90
2012,10,02,03,27,8.90
2012,10,02,03,28,9.00
2012,10,02,03,29,9.00
2012,10,02,03,30,9.10
2012,10,02,03,31,9.10
2012,10,02,03,32,9.10
2012,10,02,03,33,9.20
2012,10,02,03,34,9.20
2012,10,02,03,35,9.20
2012,10,02,03,36,9.20
2012,10,02,03,37,9.20
2012,10,02,03,38,9.20
2012,10,02,03,39,9.20
2012,10,02,03,40,9.20
2012,10,02,03,41,9.20
2012,10,02,03,42,9.20
2012,10,02,03,43,9.20
2012,10,02,03,44,9.20
2012,10,02,03,45,9.20
2012,10,02,03,46,9.20
2012,10,02,03,47,9.20
2012,10,02,03,48,9.20
2012,10,02,03,49,9.20
2012,10,02,03,50,9.20
2012,10,02,03,51,9.10
2012,10,02,03,52,9.00
2012,10,02,03,53,9.00
2012,10,02,03,54,9.00
2012,10,02,03,55,9.00
2012,10,02,03,56,9.00
2012,10,02,03,57,9.00
2012,10,02,03,58,8.90
2012,10,02,03,59,8.90
2012,10,02,04,00,8.90
2012,10,02,04,01,8.90
2012,10,02,04,02,8.80
2012,10,02,04,03,8.80
2012,10,02,04,04,8.80
2012,10,02,04,05,8.80
2012,10,02,04,06,8.80
2012,10,02,04,07,8.70
2012,10,02,04,08,8.70
2012,10,02,04,09,8.70
2012,10,02,04,10,8.70
2012,10,02,04,11,8.70
2012,10,02,04,12,8.60
2012,10,02,04,13,8.60
2012,10,02,04,14,8.50
2012,10,02,04,15,8.50
2012,10,02,04,16,8.40
2012,10,02,04,17,8.40
2012,10,02,04,18,8.40
2012,10,02,04,19,8.40
2012,10,02,04,20,8.40
2012,10,02,04,21,8.30
2012,10,02,04,22,8.30
2012,10,02,04,23,8.30
2012,10,02,04,24,8.20
2012,10,02,04,25,8.20
2012,10,02,04,26,8.10
2012,10,02,04,27,8.10
2012,10,02,04,28,8.10
2012,10,02,04,29,8.10
2012,10,02,04,30,8.10
2012,10,02,04,31,8.10
2012,10,02,04,32,8.00
2012,10,02,04,33,8.00
2012,10,02,04,34,8.00
2012,10,02,04,35,7.90
2012,10,02,04,36,7.90
2012,10,02,04,37,7.90
2012,10,02,04,38,7.90
2012,10,02,04,39,7.90
2012,10,02,04,40,7.80
2012,10,02,04,41,7.80
2012,10,02,04,42,7.80
2012,10,02,04,43,7.80
2012,10,02,04,44,7.80
2012,10,02,04,45,7.80
2012,10,02,04,46,7.80
2012,10,02,04,47,7.70
2012,10,02,04,48,7.70
2012,10,02,04,49,7.80
2012,10,02,04,50,7.80
2012,10,02,04,51,7.80
2012,10,02,04,52,7.80
2012,10,02,04,53,7.80
2012,10,02,04,54,7.80
2012,10,02,04,55,7.70
2012,10,02,04,56,7.70
2012,10,02,04,57,7.60
2012,10,02,04,58,7.60
2012,10,02,04,59,7.50
2012,10,02,05,00,7.50
2012,10,02,05,01,7.50
2012,10,02,05,02,7.50
2012,10,02,05,03,7.50
2012,10,02,05,04,7.40
2012,10,02,05,05,7.40
2012,10,02,05,06,7.40
2012,10,02,05,07,7.30
2012,10,02,05,08,7.30
2012,10,02,05,09,7.30
2012,10,02,05,10,7.30
2012,10,02,05,11,7.30
2012,10,02,05,12,7.30
2012,10,02,05,13,7.30
2012,10,02,05,14,7.30
2012,10,02,05,15,7.20
2012,10,02,05,16,7.20
2012,10,02,05,17,7.20
2012,10,02,05,18,7.10
2012,10,02,05,19,7.10
2012,10,02,05,20,7.10
2012,10,02,05,21,7.20
2012,10,02,05,22,7.20
2012,10,02,05,23,7.30
2012,10,02,05,24,7.20
2012,10,02,05,25,7.20
2012,10,02,05,26,7.20
2012,10,02,05,27,7.10
2012,10,02,05,28,7.10
2012,10,02,05,29,7.10
2012,10,02,05,30,7.10
2012,10,02,05,31,7.10
2012,10,02,05,32,7.10
2012,10,02,05,33,7.10
2012,10,02,05,34,7.10
2012,10,02,05,35,7.10
2012,10,02,05,36,7.00
2012,10,02,05,37,7.00
2012,10,02,05,38,7.00
2012,10,02,05,39,6.90
2012,10,02,05,40,6.90
2012,10,02,05,41,6.80
2012,10,02,05,42,6.80
2012,10,02,05,43,6.80
2012,10,02,05,44,6.80
2012,10,02,05,45,6.80
2012,10,02,05,46,6.80
2012,10,02,05,47,6.80
2012,10,02,05,48,6.80
2012,10,02,05,49,6.80
2012,10,02,05,50,6.90
2012,10,02,05,51,6.90
2012,10,02,05,52,6.90
2012,10,02,05,53,6.80
2012,10,02,05,54,6.90
2012,10,02,05,55,6.80
2012,10,02,05,56,6.80
2012,10,02,05,57,6.80
2012,10,02,05,58,6.80
2012,10,02,05,59,6.80
2012,10,02,06,00,6.80
2012,10,02,06,01,6.80
2012,10,02,06,02,6.80
2012,10,02,06,03,6.70
2012,10,02,06,04,6.70
2012,10,02,06,05,6.70
2012,10,02,06,06,6.60
2012,10,02,06,07,6.60
2012,10,02,06,08,6.60
2012,10,02,06,09,6.60
2012,10,02,06,10,6.60
2012,10,02,06,11,6.70
2012,10,02,06,12,6.70
2012,10,02,06,13,6.70
2012,10,02,06,14,6.70
2012,10,02,06,15,6.60
2012,10,02,06,16,6.60
2012,10,02,06,17,6.60
2012,10,02,06,18,6.60
2012,10,02,06,19,6.60
2012,10,02,06,20,6.70
2012,10,02,06,21,6.70
2012,10,02,06,22,6.70
2012,10,02,06,23,6.80
2012,10,02,06,24,6.80
2012,10,02,06,25,6.80
2012,10,02,06,26,6.80
2012,10,02,06,27,6.70
2012,10,02,06,28,6.70
2012,10,02,06,29,6.70
2012,10,02,06,30,6.70
2012,10,02,06,31,6.70
2012,10,02,06,32,6.80
2012,10,02,06,33,6.80
2012,10,02,06,34,6.80
2012,10,02,06,35,6.80
2012,10,02,06,36,6.80
2012,10,02,06,37,6.80
2012,10,02,06,38,6.80
2012,10,02,06,39,6.80
2012,10,02,06,40,6.90
2012,10,02,06,41,6.80
2012,10,02,06,42,6.80
2012,10,02,06,43,6.80
2012,10,02,06,44,6.80
2012,10,02,06,45,6.80
2012,10,02,06,46,6.70
2012,10,02,06,47,6.70
2012,10,02,06,48,6.70
2012,10,02,06,49,6.70
2012,10,02,06,50,6.60
2012,10,02,06,51,6.70
2012,10,02,06,52,6.70
2012,10,02,06,53,6.70
2012,10,02,06,54,6.70
2012,10,02,06,55,6.80
2012,10,02,06,56,6.80
2012,10,02,06,57,6.80
2012,10,02,06,58,6.80
2012,10,02,06,59,6.80
2012,10,02,07,00,6.80
2012,10,02,07,01,6.80
2012,10,02,07,02,6.80
2012,10,02,07,03,6.80
2012,10,02,07,04,6.80
2012,10,02,07,05,6.80
2012,10,02,07,06,6.80
2012,10,02,07,07,6.80
2012,10,02,07,08,6.70
2012,10,02,07,09,6.60
2012,10,02,07,10,6.50
2012,10,02,07,11,6.40
2012,10,02,07,12,6.40
2012,10,02,07,13,6.40
2012,10,02,07,14,6.40
2012,10,02,07,15,6.40
2012,10,02,07,16,6.40
2012,10,02,07,17,6.40
2012,10,02,07,18,6.40
2012,10,02,07,19,6.30
2012,10,02,07,20,6.20
2012,10,02,07,21,6.20
2012,10,02,07,22,6.20
2012,10,02,07,23,6.20
2012,10,02,07,24,6.20
2012,10,02,07,25,6.30
2012,10,02,07,26,6.30
2012,10,02,07,27,6.30
2012,10,02,07,28,6.20
2012,10,02,07,29,6.20
2012,10,02,07,30,6.10
2012,10,02,07,31,6.00
2012,10,02,07,32,5.90
2012,10,02,07,33,5.80
2012,10,02,07,34,5.80
2012,10,02,07,35,5.80
2012,10,02,07,36,5.80
2012,10,02,07,37,5.80
2012,10,02,07,38,5.80
2012,10,02,07,39,5.80
2012,10,02,07,40,5.80
2012,10,02,07,41,5.80
2012,10,02,07,42,5.90
2012,10,02,07,43,5.90
2012,10,02,07,44,5.90
2012,10,02,07,45,5.90
2012,10,02,07,46,5.90
2012,10,02,07,47,5.90
2012,10,02,07,48,6.00
2012,10,02,07,49,6.00
2012,10,02,07,50,6.00
2012,10,02,07,51,6.00
2012,10,02,07,52,5.90
2012,10,02,07,53,5.90
2012,10,02,07,54,5.90
2012,10,02,07,55,5.90
2012,10,02,07,56,5.90
2012,10,02,07,57,5.90
2012,10,02,07,58,6.00
2012,10,02,07,59,6.00
2012,10,02,08,00,6.00
2012,10,02,08,01,6.00
2012,10,02,08,02,6.10
2012,10,02,08,03,6.10
2012,10,02,08,04,6.20
2012,10,02,08,05,6.20
2012,10,02,08,06,6.20
2012,10,02,08,07,6.30
2012,10,02,08,08,6.30
2012,10,02,08,09,6.40
2012,10,02,08,10,6.40
2012,10,02,08,11,6.40
2012,10,02,08,12,6.50
2012,10,02,08,13,6.60
2012,10,02,08,14,6.60
2012,10,02,08,15,6.60
2012,10,02,08,16,6.70
2012,10,02,08,17,6.70
2012,10,02,08,18,6.80
2012,10,02,08,19,6.80
2012,10,02,08,20,6.80
2012,10,02,08,21,6.90
2012,10,02,08,22,7.00
2012,10,02,08,23,7.10
2012,10,02,08,24,7.20
2012,10,02,08,25,7.30
2012,10,02,08,26,7.30
2012,10,02,08,27,7.40
2012,10,02,08,28,7.50
2012,10,02,08,29,7.60
2012,10,02,08,30,7.60
2012,10,02,08,31,7.70
2012,10,02,08,32,7.80
2012,10,02,08,33,7.90
2012,10,02,08,34,8.00
2012,10,02,08,35,8.10
2012,10,02,08,36,8.30
2012,10,02,08,37,8.40
2012,10,02,08,38,8.50
2012,10,02,08,39,8.60
2012,10,02,08,40,8.60
2012,10,02,08,41,8.70
2012,10,02,08,42,8.70
2012,10,02,08,43,8.80
2012,10,02,08,44,8.90
2012,10,02,08,45,8.90
2012,10,02,08,46,9.00
2012,10,02,08,47,9.10
2012,10,02,08,48,9.10
2012,10,02,08,49,9.20
2012,10,02,08,50,9.20
2012,10,02,08,51,9.20
2012,10,02,08,52,9.20
2012,10,02,08,53,9.30
2012,10,02,08,54,9.30
2012,10,02,08,55,9.40
2012,10,02,08,56,9.40
2012,10,02,08,57,9.40
2012,10,02,08,58,9.40
2012,10,02,08,59,9.40
2012,10,02,09,00,9.40
2012,10,02,09,01,9.40
2012,10,02,09,02,9.50
2012,10,02,09,03,9.50
2012,10,02,09,04,9.60
2012,10,02,09,05,9.70
2012,10,02,09,06,9.70
2012,10,02,09,07,9.80
2012,10,02,09,08,9.80
2012,10,02,09,09,9.90
2012,10,02,09,10,9.90
2012,10,02,09,11,9.90
2012,10,02,09,12,9.90
2012,10,02,09,13,9.90
2012,10,02,09,14,9.90
2012,10,02,09,15,9.90
2012,10,02,09,16,9.90
2012,10,02,09,17,9.90
2012,10,02,09,18,9.90
2012,10,02,09,19,9.90
2012,10,02,09,20,9.90
2012,10,02,09,21,9.90
2012,10,02,09,22,9.90
2012,10,02,09,23,9.90
2012,10,02,09,24,9.90
2012,10,02,09,25,9.90
2012,10,02,09,26,9.90
2012,10,02,09,27,9.90
2012,10,02,09,28,9.90
2012,10,02,09,29,9.90
2012,10,02,09,30,9.90
2012,10,02,09,31,10.00
2012,10,02,09,32,10.10
2012,10,02,09,33,10.10
2012,10,02,09,34,10.10
2012,10,02,09,35,10.10
2012,10,02,09,36,10.10
2012,10,02,09,37,10.10
2012,10,02,09,38,10.10
2012,10,02,09,39,10.10
2012,10,02,09,40,10.20
2012,10,02,09,41,10.20
2012,10,02,09,42,10.20
2012,10,02,09,43,10.30
2012,10,02,09,44,10.30
2012,10,02,09,45,10.30
2012,10,02,09,46,10.30
2012,10,02,09,47,10.40
2012,10,02,09,48,10.40
2012,10,02,09,49,10.40
2012,10,02,09,50,10.40
2012,10,02,09,51,10.40
2012,10,02,09,52,10.40
2012,10,02,09,53,10.40
2012,10,02,09,54,10.40
2012,10,02,09,55,10.40
2012,10,02,09,56,10.40
2012,10,02,09,57,10.50
2012,10,02,09,58,10.60
2012,10,02,09,59,10.60
2012,10,02,10,00,10.60
2012,10,02,10,01,10.60
2012,10,02,10,02,10.70
2012,10,02,10,03,10.70
2012,10,02,10,04,10.70
2012,10,02,10,05,10.70
2012,10,02,10,06,10.70
2012,10,02,10,07,10.80
2012,10,02,10,08,10.80
2012,10,02,10,09,10.90
2012,10,02,10,10,10.90
2012,10,02,10,11,10.90
2012,10,02,10,12,10.90
2012,10,02,10,13,10.90
2012,10,02,10,14,10.80
2012,10,02,10,15,10.70
2012,10,02,10,16,10.80
2012,10,02,10,17,10.80
2012,10,02,10,18,10.90
2012,10,02,10,19,10.90
2012,10,02,10,20,10.90
2012,10,02,10,21,10.90
2012,10,02,10,22,11.00
2012,10,02,10,23,11.10
2012,10,02,10,24,11.10
2012,10,02,10,25,11.10
2012,10,02,10,26,11.10
2012,10,02,10,27,11.20
2012,10,02,10,28,11.20
2012,10,02,10,29,11.20
2012,10,02,10,30,11.20
2012,10,02,10,31,11.20
2012,10,02,10,32,11.30
2012,10,02,10,33,11.40
2012,10,02,10,34,11.40
2012,10,02,10,35,11.40
2012,10,02,10,36,11.50
2012,10,02,10,37,11.60
2012,10,02,10,38,11.60
2012,10,02,10,39,11.60
2012,10,02,10,40,11.60
2012,10,02,10,41,11.60
2012,10,02,10,42,11.60
2012,10,02,10,43,11.70
2012,10,02,10,44,11.70
2012,10,02,10,45,11.70
2012,10,02,10,46,11.70
2012,10,02,10,47,11.70
2012,10,02,10,48,11.60
2012,10,02,10,49,11.50
2012,10,02,10,50,11.40
2012,10,02,10,51,11.40
2012,10,02,10,52,11.40
2012,10,02,10,53,11.40
2012,10,02,10,54,11.40
2012,10,02,10,55,11.40
2012,10,02,10,56,11.40
2012,10,02,10,57,11.40
2012,10,02,10,58,11.60
2012,10,02,10,59,11.60
2012,10,02,11,00,11.60
2012,10,02,11,01,11.70
2012,10,02,11,02,11.80
2012,10,02,11,03,11.80
2012,10,02,11,04,11.80
2012,10,02,11,05,11.80
2012,10,02,11,06,11.80
2012,10,02,11,07,11.80
2012,10,02,11,08,11.80
2012,10,02,11,09,11.80
2012,10,02,11,10,11.80
2012,10,02,11,11,11.80
2012,10,02,11,12,11.80
2012,10,02,11,13,11.80
2012,10,02,11,14,11.80
2012,10,02,11,15,11.80
2012,10,02,11,16,11.90
2012,10,02,11,17,11.90
2012,10,02,11,18,11.90
2012,10,02,11,19,12.00
2012,10,02,11,20,12.00
2012,10,02,11,21,12.10
2012,10,02,11,22,12.10
2012,10,02,11,23,12.10
2012,10,02,11,24,12.10
2012,10,02,11,25,12.20
2012,10,02,11,26,12.20
2012,10,02,11,27,12.30
2012,10,02,11,28,12.40
2012,10,02,11,29,12.50
2012,10,02,11,30,12.50
2012,10,02,11,31,12.60
2012,10,02,11,32,12.60
2012,10,02,11,33,12.70
2012,10,02,11,34,12.60
2012,10,02,11,35,12.60
2012,10,02,11,36,12.60
2012,10,02,11,37,12.60
2012,10,02,11,38,12.60
2012,10,02,11,39,12.60
2012,10,02,11,40,12.60
2012,10,02,11,41,12.60
2012,10,02,11,42,12.50
2012,10,02,11,43,12.50
2012,10,02,11,44,12.50
2012,10,02,11,45,12.50
2012,10,02,11,46,12.50
2012,10,02,11,47,12.50
2012,10,02,11,48,12.50
2012,10,02,11,49,12.50
2012,10,02,11,50,12.50
2012,10,02,11,51,12.50
2012,10,02,11,52,12.50
2012,10,02,11,53,12.50
2012,10,02,11,54,12.40
2012,10,02,11,55,12.40
2012,10,02,11,56,12.40
2012,10,02,11,57,12.40
2012,10,02,11,58,12.40
2012,10,02,11,59,12.40
2012,10,02,12,00,12.40
2012,10,02,12,01,12.50
2012,10,02,12,02,12.60
2012,10,02,12,03,12.60
2012,10,02,12,04,12.70
2012,10,02,12,05,12.70
2012,10,02,12,06,12.70
2012,10,02,12,07,12.70
2012,10,02,12,08,12.70
2012,10,02,12,09,12.80
2012,10,02,12,10,12.80
2012,10,02,12,11,12.70
2012,10,02,12,12,12.60
2012,10,02,12,13,12.60
2012,10,02,12,14,12.50
2012,10,02,12,15,12.50
2012,10,02,12,16,12.40
2012,10,02,12,17,12.30
2012,10,02,12,18,12.30
2012,10,02,12,19,12.20
2012,10,02,12,20,12.10
2012,10,02,12,21,12.10
2012,10,02,12,22,12.10
2012,10,02,12,23,12.10
2012,10,02,12,24,12.10
2012,10,02,12,25,12.10
2012,10,02,12,26,12.10
2012,10,02,12,27,12.20
2012,10,02,12,28,12.30
2012,10,02,12,29,12.40
2012,10,02,12,30,12.50
2012,10,02,12,31,12.50
2012,10,02,12,32,12.50
2012,10,02,12,33,12.60
2012,10,02,12,34,12.60
2012,10,02,12,35,12.60
2012,10,02,12,36,12.60
2012,10,02,12,37,12.60
2012,10,02,12,38,12.60
2012,10,02,12,39,12.60
2012,10,02,12,40,12.70
2012,10,02,12,41,12.60
2012,10,02,12,42,12.60
2012,10,02,12,43,12.70
2012,10,02,12,44,12.70
2012,10,02,12,45,12.80
2012,10,02,12,46,12.80
2012,10,02,12,47,12.80
2012,10,02,12,48,12.80
2012,10,02,12,49,12.80
2012,10,02,12,50,12.80
2012,10,02,12,51,12.80
2012,10,02,12,52,12.80
2012,10,02,12,53,12.90
2012,10,02,12,54,12.90
2012,10,02,12,55,12.90
2012,10,02,12,56,12.90
2012,10,02,12,57,12.90
2012,10,02,12,58,12.80
2012,10,02,12,59,12.90
2012,10,02,13,00,12.90
2012,10,02,13,01,12.90
2012,10,02,13,02,12.90
2012,10,02,13,03,12.90
2012,10,02,13,04,12.90
2012,10,02,13,05,12.90
2012,10,02,13,06,13.00
2012,10,02,13,07,13.00
2012,10,02,13,08,13.10
2012,10,02,13,09,13.20
2012,10,02,13,10,13.30
2012,10,02,13,11,13.30
2012,10,02,13,12,13.40
2012,10,02,13,13,13.40
2012,10,02,13,14,13.40
2012,10,02,13,15,13.50
2012,10,02,13,16,13.50
2012,10,02,13,17,13.50
2012,10,02,13,18,13.50
2012,10,02,13,19,13.60
2012,10,02,13,20,13.60
2012,10,02,13,21,13.70
2012,10,02,13,22,13.70
2012,10,02,13,23,13.80
2012,10,02,13,24,13.90
2012,10,02,13,25,14.00
2012,10,02,13,26,14.00
2012,10,02,13,27,14.00
2012,10,02,13,28,14.00
2012,10,02,13,29,14.00
2012,10,02,13,30,14.00
2012,10,02,13,31,14.00
2012,10,02,13,32,14.00
2012,10,02,13,33,14.10
2012,10,02,13,34,14.10
2012,10,02,13,35,14.20
2012,10,02,13,36,14.20
2012,10,02,13,37,14.30
2012,10,02,13,38,14.50
2012,10,02,13,39,14.60
2012,10,02,13,40,14.70
2012,10,02,13,41,14.80
2012,10,02,13,42,14.90
2012,10,02,13,43,14.90
2012,10,02,13,44,14.90
2012,10,02,13,45,14.80
2012,10,02,13,46,14.80
2012,10,02,13,47,14.80
2012,10,02,13,48,14.80
2012,10,02,13,49,14.80
2012,10,02,13,50,15.00
2012,10,02,13,51,15.00
2012,10,02,13,52,15.00
2012,10,02,13,53,15.10
2012,10,02,13,54,15.10
2012,10,02,13,55,15.00
2012,10,02,13,56,15.00
2012,10,02,13,57,15.10
2012,10,02,13,58,15.20
2012,10,02,13,59,15.20
2012,10,02,14,00,15.30
2012,10,02,14,01,15.30
2012,10,02,14,02,15.10
2012,10,02,14,03,15.10
2012,10,02,14,04,15.10
2012,10,02,14,05,15.10
2012,10,02,14,06,15.20
2012,10,02,14,07,15.30
2012,10,02,14,08,15.30
2012,10,02,14,09,15.50
2012,10,02,14,10,15.50
2012,10,02,14,11,15.60
2012,10,02,14,12,15.70
2012,10,02,14,13,15.80
2012,10,02,14,14,15.80
2012,10,02,14,15,15.80
2012,10,02,14,16,15.70
2012,10,02,14,17,15.60
2012,10,02,14,18,15.60
2012,10,02,14,19,15.50
2012,10,02,14,20,15.50
2012,10,02,14,21,15.60
2012,10,02,14,22,15.60
2012,10,02,14,23,15.70
2012,10,02,14,24,15.70
2012,10,02,14,25,15.60
2012,10,02,14,26,15.20
2012,10,02,14,27,15.00
2012,10,02,14,28,14.80
2012,10,02,14,29,14.70
2012,10,02,14,30,14.80
2012,10,02,14,31,14.90
2012,10,02,14,32,15.00
2012,10,02,14,33,15.10
2012,10,02,14,34,15.20
2012,10,02,14,35,15.30
2012,10,02,14,36,15.30
2012,10,02,14,37,15.30
2012,10,02,14,38,15.40
2012,10,02,14,39,15.40
2012,10,02,14,40,15.40
2012,10,02,14,41,15.50
2012,10,02,14,42,15.60
2012,10,02,14,43,15.60
2012,10,02,14,44,15.70
2012,10,02,14,45,15.80
2012,10,02,14,46,15.90
2012,10,02,14,47,16.10
2012,10,02,14,48,16.10
2012,10,02,14,49,16.10
2012,10,02,14,50,16.10
2012,10,02,14,51,16.10
2012,10,02,14,52,16.10
2012,10,02,14,53,16.10
2012,10,02,14,54,16.20
2012,10,02,14,55,16.20
2012,10,02,14,56,16.30
2012,10,02,14,57,16.30
2012,10,02,14,58,16.40
2012,10,02,14,59,16.40
2012,10,02,15,00,16.40
2012,10,02,15,01,16.40
2012,10,02,15,02,16.40
2012,10,02,15,03,16.40
2012,10,02,15,04,16.40
2012,10,02,15,05,16.40
2012,10,02,15,06,16.40
2012,10,02,15,07,16.40
2012,10,02,15,08,16.30
2012,10,02,15,09,16.30
2012,10,02,15,10,16.20
2012,10,02,15,11,16.30
2012,10,02,15,12,16.40
2012,10,02,15,13,16.40
2012,10,02,15,14,16.40
2012,10,02,15,15,16.40
2012,10,02,15,16,16.40
2012,10,02,15,17,16.40
2012,10,02,15,18,16.30
2012,10,02,15,19,16.20
2012,10,02,15,20,16.20
2012,10,02,15,21,16.10
2012,10,02,15,22,16.10
2012,10,02,15,23,16.00
2012,10,02,15,24,15.90
2012,10,02,15,25,15.90
2012,10,02,15,26,15.90
2012,10,02,15,27,15.90
2012,10,02,15,28,15.90
2012,10,02,15,29,15.90
2012,10,02,15,30,15.90
2012,10,02,15,31,15.80
2012,10,02,15,32,15.80
2012,10,02,15,33,15.90
2012,10,02,15,34,16.00
2012,10,02,15,35,16.10
2012,10,02,15,36,16.10
2012,10,02,15,37,16.20
2012,10,02,15,38,16.20
2012,10,02,15,39,16.20
2012,10,02,15,40,16.10
2012,10,02,15,41,16.00
2012,10,02,15,42,15.90
2012,10,02,15,43,15.80
2012,10,02,15,44,15.80
2012,10,02,15,45,15.60
2012,10,02,15,46,15.60
2012,10,02,15,47,15.50
2012,10,02,15,48,15.40
2012,10,02,15,49,15.40
2012,10,02,15,50,15.40
2012,10,02,15,51,15.40
2012,10,02,15,52,15.40
2012,10,02,15,53,15.40
2012,10,02,15,54,15.40
2012,10,02,15,55,15.40
2012,10,02,15,56,15.50
2012,10,02,15,57,15.50
2012,10,02,15,58,15.60
2012,10,02,15,59,15.60
2012,10,02,16,00,15.60
2012,10,02,16,01,15.60
2012,10,02,16,02,15.60
2012,10,02,16,03,15.60
2012,10,02,16,04,15.70
2012,10,02,16,05,15.70
2012,10,02,16,06,15.80
2012,10,02,16,07,15.70
2012,10,02,16,08,15.60
2012,10,02,16,09,15.60
2012,10,02,16,10,15.50
2012,10,02,16,11,15.50
2012,10,02,16,12,15.50
2012,10,02,16,13,15.50
2012,10,02,16,14,15.50
2012,10,02,16,15,15.40
2012,10,02,16,16,15.40
2012,10,02,16,17,15.30
2012,10,02,16,18,15.30
2012,10,02,16,19,15.20
2012,10,02,16,20,15.20
2012,10,02,16,21,15.20
2012,10,02,16,22,15.20
2012,10,02,16,23,15.10
2012,10,02,16,24,15.10
2012,10,02,16,25,15.10
2012,10,02,16,26,15.10
2012,10,02,16,27,15.00
2012,10,02,16,28,15.00
2012,10,02,16,29,15.00
2012,10,02,16,30,15.10
2012,10,02,16,31,15.10
2012,10,02,16,32,15.10
2012,10,02,16,33,15.20
2012,10,02,16,34,15.20
2012,10,02,16,35,15.20
2012,10,02,16,36,15.20
2012,10,02,16,37,15.30
2012,10,02,16,38,15.30
2012,10,02,16,39,15.20
2012,10,02,16,40,15.20
2012,10,02,16,41,15.20
2012,10,02,16,42,15.20
2012,10,02,16,43,15.20
2012,10,02,16,44,15.30
2012,10,02,16,45,15.30
2012,10,02,16,46,15.30
2012,10,02,16,47,15.30
2012,10,02,16,48,15.30
2012,10,02,16,49,15.30
2012,10,02,16,50,15.30
2012,10,02,16,51,15.30
2012,10,02,16,52,15.30
2012,10,02,16,53,15.30
2012,10,02,16,54,15.30
2012,10,02,16,55,15.30
2012,10,02,16,56,15.20
2012,10,02,16,57,15.20
2012,10,02,16,58,15.10
2012,10,02,16,59,15.10
2012,10,02,17,00,15.10
2012,10,02,17,01,15.10
2012,10,02,17,02,15.10
2012,10,02,17,03,15.10
2012,10,02,17,04,15.10
2012,10,02,17,05,15.10
2012,10,02,17,06,15.00
2012,10,02,17,07,15.00
2012,10,02,17,08,15.00
2012,10,02,17,09,14.90
2012,10,02,17,10,14.90
2012,10,02,17,11,14.90
2012,10,02,17,12,14.90
2012,10,02,17,13,14.90
2012,10,02,17,14,14.80
2012,10,02,17,15,14.80
2012,10,02,17,16,14.80
2012,10,02,17,17,14.80
2012,10,02,17,18,14.90
2012,10,02,17,19,14.90
2012,10,02,17,20,14.90
2012,10,02,17,21,14.80
2012,10,02,17,22,14.80
2012,10,02,17,23,14.70
2012,10,02,17,24,14.70
2012,10,02,17,25,14.60
2012,10,02,17,26,14.60
2012,10,02,17,27,14.60
2012,10,02,17,28,14.60
2012,10,02,17,29,14.50
2012,10,02,17,30,14.50
2012,10,02,17,31,14.50
2012,10,02,17,32,14.50
2012,10,02,17,33,14.50
2012,10,02,17,34,14.50
2012,10,02,17,35,14.40
2012,10,02,17,36,14.40
2012,10,02,17,37,14.40
2012,10,02,17,38,14.40
2012,10,02,17,39,14.40
2012,10,02,17,40,14.30
2012,10,02,17,41,14.30